TimeCDT,TemperatureF,Dew PointF,Humidity,Sea Level PressureIn,VisibilityMPH,Wind Direction,Wind SpeedMPH,Gust SpeedMPH,PrecipitationIn,Events,Conditions,WindDirDegrees,DateUTC
12:15 AM,82.4,71.6,70,30.09,10.0,ESE,20.7,-,N/A,,Clear,110,2012-10-13 05:15:00
12:35 AM,82.4,71.6,70,30.09,10.0,East,23.0,-,N/A,,Clear,100,2012-10-13 05:35:00
12:55 AM,82.4,73.4,74,30.08,10.0,ESE,23.0,-,N/A,,Clear,110,2012-10-13 05:55:00
1:15 AM,82.4,71.6,70,30.07,10.0,East,21.9,-,N/A,,Partly Cloudy,100,2012-10-13 06:15:00
1:35 AM,82.4,73.4,74,30.08,10.0,ESE,21.9,-,N/A,,Partly Cloudy,110,2012-10-13 06:35:00
2:15 AM,82.4,71.6,70,30.07,10.0,East,21.9,-,N/A,,Partly Cloudy,100,2012-10-13 07:15:00
2:35 AM,82.4,71.6,70,30.07,10.0,ESE,21.9,-,N/A,,Clear,110,2012-10-13 07:35:00
2:55 AM,82.4,71.6,70,30.06,10.0,ESE,23.0,-,N/A,,Clear,110,2012-10-13 07:55:00
3:15 AM,82.4,71.6,70,30.06,10.0,ESE,21.9,-,N/A,,Clear,110,2012-10-13 08:15:00
3:35 AM,82.4,71.6,70,30.05,10.0,ESE,21.9,-,N/A,,Clear,120,2012-10-13 08:35:00
3:55 AM,80.6,71.6,74,30.04,10.0,ESE,23.0,-,N/A,,Clear,110,2012-10-13 08:55:00
4:35 AM,80.6,73.4,79,30.04,10.0,ESE,23.0,-,N/A,,Clear,120,2012-10-13 09:35:00
5:35 AM,82.4,73.4,74,30.04,10.0,ESE,24.2,-,N/A,,Clear,120,2012-10-13 10:35:00
5:55 AM,82.4,73.4,74,30.04,10.0,ESE,21.9,-,N/A,,Clear,120,2012-10-13 10:55:00
6:15 AM,82.4,75.2,79,30.05,10.0,SE,23.0,-,N/A,,Mostly Cloudy,130,2012-10-13 11:15:00
6:35 AM,82.4,75.2,79,30.04,10.0,SE,20.7,-,N/A,,Mostly Cloudy,130,2012-10-13 11:35:00
6:55 AM,82.4,75.2,79,30.04,10.0,SE,23.0,-,N/A,,Partly Cloudy,130,2012-10-13 11:55:00
7:15 AM,-9999,-9999,N/A,30.03,-9999.0,North,-9999.0,-,N/A,,Unknown,0,2012-10-13 12:15:00
7:55 AM,82.4,75.2,79,30.04,8.0,SE,20.7,-,N/A,,Clear,140,2012-10-13 12:55:00
8:15 AM,82.4,77.0,84,30.04,8.0,SE,17.3,-,N/A,,Mostly Cloudy,140,2012-10-13 13:15:00
8:55 AM,82.4,75.2,79,30.05,7.0,SE,17.3,-,N/A,,Mostly Cloudy,140,2012-10-13 13:55:00
9:15 AM,82.4,75.2,79,30.05,8.0,SSE,20.7,-,N/A,,Scattered Clouds,150,2012-10-13 14:15:00
9:35 AM,82.4,75.2,79,30.06,8.0,SE,20.7,-,N/A,,Scattered Clouds,140,2012-10-13 14:35:00
9:55 AM,82.4,75.2,79,30.06,9.0,SE,20.7,-,N/A,,Scattered Clouds,140,2012-10-13 14:55:00
10:15 AM,82.4,75.2,79,30.06,8.0,SE,18.4,-,N/A,,Scattered Clouds,140,2012-10-13 15:15:00
11:15 AM,82.4,75.2,79,30.07,8.0,SE,23.0,-,N/A,,Partly Cloudy,140,2012-10-13 16:15:00
11:35 AM,82.4,75.2,79,30.07,9.0,SE,23.0,-,N/A,,Scattered Clouds,140,2012-10-13 16:35:00
11:55 AM,82.4,73.4,74,30.06,9.0,SE,23.0,-,N/A,,Mostly Cloudy,140,2012-10-13 16:55:00
12:15 PM,82.4,73.4,74,30.06,9.0,SE,23.0,-,N/A,,Scattered Clouds,140,2012-10-13 17:15:00
12:35 PM,82.4,73.4,74,30.05,9.0,SE,21.9,-,N/A,,Partly Cloudy,140,2012-10-13 17:35:00
12:55 PM,82.4,75.2,79,30.04,9.0,SE,23.0,-,N/A,,Clear,140,2012-10-13 17:55:00
1:15 PM,82.4,73.4,74,30.03,9.0,SE,24.2,-,N/A,,Partly Cloudy,140,2012-10-13 18:15:00
1:35 PM,84.2,73.4,70,30.02,9.0,SE,21.9,-,N/A,,Partly Cloudy,140,2012-10-13 18:35:00
1:55 PM,82.4,73.4,74,30.00,9.0,SE,24.2,-,N/A,,Clear,130,2012-10-13 18:55:00
2:15 PM,84.2,73.4,70,29.99,9.0,SE,24.2,-,N/A,,Clear,140,2012-10-13 19:15:00
2:35 PM,84.2,73.4,70,29.98,9.0,SE,25.3,-,N/A,,Clear,140,2012-10-13 19:35:00
3:15 PM,82.4,73.4,74,29.98,9.0,SE,25.3,-,N/A,,Mostly Cloudy,140,2012-10-13 20:15:00
3:35 PM,84.2,73.4,70,29.97,9.0,SE,24.2,-,N/A,,Partly Cloudy,140,2012-10-13 20:35:00
3:55 PM,84.2,73.4,70,29.97,9.0,SSE,24.2,-,N/A,,Clear,150,2012-10-13 20:55:00
4:15 PM,84.2,75.2,74,29.96,9.0,SSE,21.9,-,N/A,,Partly Cloudy,150,2012-10-13 21:15:00
4:55 PM,84.2,73.4,70,29.95,9.0,SSE,24.2,-,N/A,,Clear,150,2012-10-13 21:55:00
5:35 PM,84.2,73.4,70,29.95,9.0,SSE,25.3,-,N/A,,Partly Cloudy,150,2012-10-13 22:35:00
5:55 PM,84.2,73.4,70,29.94,9.0,SSE,23.0,-,N/A,,Clear,150,2012-10-13 22:55:00
6:15 PM,82.4,73.4,74,29.94,9.0,SE,25.3,-,N/A,,Scattered Clouds,140,2012-10-13 23:15:00
6:35 PM,82.4,71.6,70,29.94,9.0,SE,25.3,-,N/A,,Partly Cloudy,140,2012-10-13 23:35:00
6:55 PM,82.4,73.4,74,29.94,8.0,SSE,25.3,-,N/A,,Scattered Clouds,150,2012-10-13 23:55:00
7:15 PM,82.4,73.4,74,29.95,9.0,SE,26.5,-,N/A,,Scattered Clouds,140,2012-10-14 00:15:00
7:35 PM,82.4,73.4,74,29.95,10.0,SSE,23.0,29.9,N/A,,Clear,150,2012-10-14 00:35:00
8:15 PM,82.4,73.4,74,29.96,10.0,SE,25.3,-,N/A,,Clear,140,2012-10-14 01:15:00
9:55 PM,82.4,73.4,74,29.97,9.0,SE,27.6,-,N/A,,Mostly Cloudy,140,2012-10-14 02:55:00
10:15 PM,82.4,71.6,70,29.98,9.0,SSE,26.5,-,N/A,,Mostly Cloudy,160,2012-10-14 03:15:00
10:55 PM,82.4,73.4,74,29.99,9.0,SE,26.5,-,N/A,,Overcast,140,2012-10-14 03:55:00
11:35 PM,82.4,73.4,74,29.99,10.0,SSE,24.2,-,N/A,,Partly Cloudy,150,2012-10-14 04:35:00